Weather in Uspenivka

Ukraine / Zaporizhia Region     47°03′33″N   36°35′54″E
temp.,
°C
wind,
m/s
gust,
m/s
humid.,
%
clouds,
%
prec.,
mm/h
press.,
hPa
HPBL,
m
2 march, tue
tue223:000n33828 0.0 102972
02:000nnw35807 0.0 102995
05:00−1nw23850 0.0 102957
08:00+1wnw357410 0.0 1029246
11:00+4w67575 0.0 10271037
14:00+5w7105623 0.0 10251047
17:00+3wsw71267100 0.0 1022760
20:00+2wsw7157485 0.0 1021562
3 march, wed
wed323:00+2w8138187 0.0 1019672
02:00+1wnw6119394 0.1 1019586
05:00+2nw7118598 0.2 1019845
08:00+2nnw7117773 0.2 1022850
11:00+4nnw796468 0.0 10231069
14:00+6nnw7105043 0.0 10241513
17:00+4nw485828 0.0 1025495
20:00+2wnw366714 0.0 1026131
4 march, thu
thu423:00+1wnw34700 0.0 102656
02:000w33750 0.0 102664
05:000wsw35760 0.0 102499
08:00+3wsw58670 0.0 1024394
11:00+7wsw79530 0.0 10221165
14:00+7sw810560 0.0 10191111
17:00+5sw711640 0.0 1017530
20:00+3sw511783 0.0 1017295
5 march, fri
fri523:00+3sw6148169 0.0 1016461
02:00+2sw6148961 0.0 1015500
05:00+2sw512913 0.0 1015434
08:00+4sw6118628 0.0 1015527
11:00+6sw797696 0.0 1015580
14:00+8ssw7106398 0.0 1014668
17:00+6ssw61175100 0.0 1012406
20:00+5ssw61384100 0.0 1013311
6 march, sat
sat623:00+4ssw5119267 0.0 1012290
02:00+4wsw499356 0.0 1012350
05:00+4wsw3597100 0.0 1012159
08:00+5nw3592100 0.0 1013264
11:00+3n6994100 0.5 1014340
14:00+1n6994100 2.5 1015605
17:00+3n5861100 0.2 10161130
20:00+1nnw5962100 0.2 1019719